Location: Goheenville
(40.9070°N, 79.3720°W)
Time: 14:51:22
(UTC-04:00)

Daily predictions for brighter satellites

Satellite Brightness Start Highest point End
(mag) Time Altitude Azimuth Time Altitude Azimuth Time Altitude Azimuth
Meteor 2-6 Rocket 4.4 20:56:59 10° N 21:02:56 75° E 21:08:42 10° SSE
FENGYUN 3A 3.9 20:58:27 10° S 21:03:50 78° WSW 21:09:15 10° NNW
Cosmos 2278 Rocket 2.4 21:00:58 10° S 21:06:27 53° ESE 21:11:59 10° NNE
Atlas Centaur 2 3.3 21:05:04 10° SW 21:06:32 12° SSW 21:07:58 10° S
COSMOS 2406 4.3 21:02:35 10° NW 21:08:03 46° WSW 21:13:27 10° S
ERS-1 Rocket 3.2 21:04:55 10° SSE 21:09:48 53° ENE 21:14:42 10° N
Cosmos 1844 3.8 21:07:26 10° SSW 21:13:12 88° WNW 21:19:03 10° NNE
Timation 2 Rocket 4.4 21:07:37 10° NNW 21:13:19 43° ENE 21:18:58 10° SE
ISS -2.5 21:10:32 10° WSW 21:13:44 54° NNW 21:16:57 10° NE
H-2A R/B 2.9 21:10:16 10° SE 21:14:04 32° ENE 21:17:49 10° N
Cosmos 1140 Rocket 4.0 21:10:43 10° N 21:15:38 43° ENE 21:20:32 10° SE
APEX 4.2 21:14:02 10° S 21:17:37 35° ESE 21:22:10 10° NE
Okean 3 4.1 21:13:52 10° N 21:17:55 39° ENE 21:21:53 10° SSE
Cosmos 407 Rocket 3.9 21:12:50 10° NNW 21:18:06 68° WSW 21:23:22 10° S
Cosmos 2154 Rocket 4.0 21:12:35 10° S 21:18:42 63° E 21:24:49 10° NNE
Cosmos 1939 Rocket 3.3 21:15:33 10° SE 21:19:15 44° ENE 21:23:01 10° N
COSMOS 2487 2.6 21:18:45 10° NNW 21:22:21 62° ENE 21:25:55 10° SSE
Cosmos 1238 Rocket 3.1 21:19:06 10° N 21:22:27 44° E 21:26:24 10° SSE
Abrixas 3.5 21:19:55 10° SSW 21:22:31 26° SE 21:25:07 10° E
YAOGAN 11 4.2 21:18:47 10° SSE 21:23:20 87° ENE 21:27:55 10° NNW
Cosmos 2082 Rocket 3.2 21:21:22 10° N 21:26:27 32° ENE 21:30:58 12° ESE
SPOT 5 3.7 21:23:32 10° SE 21:28:25 40° ENE 21:33:23 10° N
Cosmos 1452 Rocket 3.8 21:28:33 10° SSW 21:33:48 72° WNW 21:39:05 10° NNE
Lacrosse 5 3.3 21:34:32 10° SSE 21:37:33 16° ESE 21:40:34 10° E
Cosmos 1184 Rocket 2.7 21:35:03 10° S 21:38:21 73° E 21:41:43 10° NNE
Intercosmos 25 3.7 21:38:00 14° SSE 21:40:31 31° E 21:43:23 10° NNE
H-2A R/B 4.0 21:40:11 10° E 21:43:07 15° ENE 21:46:02 10° NNE
Cosmos 2297 3.8 21:39:35 10° S 21:45:08 56° ESE 21:50:45 10° NNE
MetOp-B 4.5 21:43:40 15° SE 21:47:50 49° ENE 21:52:58 10° N
Meteor 2-13 Rocket 4.4 21:45:50 10° S 21:51:54 68° E 21:58:02 10° NNE
Okean 2 Rocket 3.0 21:48:36 10° S 21:53:00 77° E 21:57:25 10° N
Cosmos 1606 4.0 21:50:41 10° NNW 21:54:24 41° W 21:58:05 10° SSW
BREEZE-M DEB (TANK) 4.1 21:54:40 10° NW 21:56:05 16° N 21:57:42 10° NE
Cosmos 1782 Rocket 3.7 21:53:24 10° SSW 21:57:51 77° W 22:02:21 10° N
SPOT 1/Viking Rocket 4.1 21:55:17 20° SE 21:58:28 42° ENE 22:03:21 10° N
EO 1 Delta rocket 4.2 21:52:42 10° N 21:58:34 84° W 22:03:23 10° SSW
USA 229 DEB 4.0 21:55:02 10° NNW 22:02:05 63° NE 22:07:00 21° SE
USA 229 4.0 21:55:08 10° NNW 22:02:11 62° NE 22:07:06 21° SE
Cosmos 1242 Rocket 2.5 21:58:40 10° N 22:02:22 87° W 22:04:46 21° S
Cosmos 1850 Rocket 4.0 22:00:18 10° NNW 22:05:39 90° WSW 22:09:25 20° SSE
COS B Rocket 4.1 22:03:22 10° N 22:07:06 46° W 22:10:25 10° SSW
Elektron 3 4.2 22:06:20 10° NW 22:09:16 72° SW 22:11:16 28° SSE
ARGOS 3.5 22:09:06 24° SE 22:12:00 49° ENE 22:17:09 10° N
YAOGAN 6 2.5 22:10:46 33° SSE 22:12:10 69° ENE 22:15:41 10° N
Cosmos 1975 Rocket 3.5 22:08:16 10° NNW 22:12:33 58° W 22:16:09 14° S
Cosmos 2369 Rocket 4.2 22:14:07 11° E 22:14:07 11° E 22:14:33 10° ENE
GPS 2-05 Rocket1 3.8 22:10:00 10° WSW 22:13:21 32° S 22:13:49 31° S
DNEPR-1 R/B 4.2 22:08:29 10° NW 22:13:36 56° WSW 22:16:17 23° S
Lacrosse 5 rocket 1.6 22:10:07 10° SSW 22:13:47 37° SE 22:17:18 10° ENE
OAO 3 Rocket 3.7 22:09:12 10° WSW 22:13:49 39° S 22:15:30 30° SE
Cosmos 2218 Rocket 4.0 22:08:10 12° S 22:14:07 67° E 22:20:28 10° NNE
Cosmos 1408 4.5 22:12:06 10° SW 22:15:22 30° WNW 22:18:37 10° NNW
PSLV R/B 3.0 22:16:18 44° S 22:17:07 81° WSW 22:20:04 10° NNW
SL-08 RB Rocket 4.3 22:15:38 29° ESE 22:17:27 43° ENE 22:21:51 10° N
CZ-4 R/B 4.3 22:14:28 10° NNE 22:18:50 38° E 22:20:06 32° SE
Cosmos 1959 Rocket 4.4 22:16:51 13° S 22:22:22 78° E 22:28:28 10° N
CZ-4 SHROUD 3.3 22:23:32 43° SSW 22:24:21 68° WSW 22:27:26 10° NNW
Gbstr 26 Del rocket 4.1 22:20:05 10° NW 22:25:06 43° NNE 22:27:30 23° E
AVUM R/B 3.4 22:22:02 10° NNW 22:25:32 62° ENE 22:26:05 52° ESE
Cosmos 1536 Rocket 3.7 22:21:06 10° N 22:25:33 59° E 22:27:03 38° SE
Cosmos 1727 Rocket 4.0 22:21:11 10° N 22:27:18 62° E 22:30:27 30° SSE
Cosmos 1741 Rocket 4.4 22:22:42 10° NNW 22:27:50 58° WSW 22:31:03 22° S
Cosmos 1331 Rocket 4.1 22:27:09 30° SSE 22:29:18 49° ESE 22:34:17 10° NNE
Landsat 7 4.4 22:28:19 32° ESE 22:29:44 41° ENE 22:34:12 10° N
NOSS 8 (H) 4.3 22:30:35 35° SSW 22:31:54 71° ESE 22:35:37 10° NE
MetOp-A 4.5 22:31:18 21° S 22:34:52 62° WSW 22:40:11 10° NNW
CZ-4C R/B 4.0 22:36:09 38° E 22:36:40 40° ENE 22:40:35 10° N
Cosmos 1110 Rocket 3.9 22:35:43 24° S 22:38:52 71° ESE 22:44:04 10° NNE
Meteor 1-20 Rocket 4.1 22:39:25 32° SSE 22:41:57 66° E 22:47:25 10° NNE
Cosmos 1833 Rocket 2.7 22:37:06 10° NNW 22:42:44 80° WSW 22:45:06 36° SSE
Terra 2.4 22:44:32 37° E 22:45:26 41° ENE 22:49:54 10° N
Cosmos 1339 Rocket 4.4 22:41:10 10° N 22:47:22 74° E 22:50:00 37° SSE
USA 245 3.7 22:46:35 43° SSW 22:47:29 57° W 22:51:46 10° NNW
NOSS 3-1 (C) 4.4 22:41:31 10° NNW 22:48:52 54° NE 22:53:00 29° ESE
H-2A R/B 4.2 22:46:54 10° SW 22:50:08 21° W 22:53:19 10° NW
ISS -0.2 22:48:38 10° NW 22:50:44 16° NNW 22:52:49 10° NNE
DMSP B5D2-2 4.4 22:47:42 10° NNE 22:52:44 45° E 22:53:13 43° ESE
Timation 1 Rocket 4.4 22:51:30 10° SSW 22:57:31 78° WNW 23:03:33 10° NNE
Abrixas 3.7 22:55:29 10° W 22:58:22 42° NNW 22:58:22 42° NNW
USA 234 3.8 22:53:04 10° ENE 22:58:06 34° ESE 22:58:06 34° ESE
Meteor 1-25 Rocket 4.5 22:58:34 23° SSW 23:02:18 71° W 23:08:08 10° N
Cosmos 1300 Rocket 3.4 23:04:46 72° SSE 23:05:13 84° E 23:09:41 10° N
CZ-4B R/B 4.0 23:00:27 10° N 23:05:13 53° WNW 23:08:19 20° SW
Spot 4 4.1 23:06:33 49° E 23:07:02 51° ENE 23:11:44 10° N
Cosmos 1486 Rocket 4.0 23:03:03 10° NNW 23:08:24 73° ENE 23:09:19 59° SE
Cosmos 2082 Rocket 3.3 23:05:23 10° NW 23:10:33 37° WSW 23:12:49 26° SSW
Okean 1 3.3 23:06:31 10° N 23:10:36 77° W 23:10:39 77° WSW
Cosmos 2285 Rocket 4.4 23:12:34 42° ESE 23:12:55 43° E 23:18:52 10° NNE
Okean 1 Rocket 2.9 23:13:53 81° S 23:14:06 90° SSE 23:18:36 10° N
Cosmos 1812 3.2 23:11:23 10° NNW 23:15:10 53° W 23:15:11 53° W
Lacrosse 5 1.8 23:14:49 10° SW 23:19:55 82° NW 23:25:02 10° NE
Genesis I 3.6 23:21:07 64° N 23:21:07 64° N 23:24:40 10° NNE
H-2A R/B 2.1 23:20:50 57° S 23:21:54 75° WSW 23:27:12 10° NNW
Meteor 2-4 Rocket 4.1 23:20:43 10° N 23:26:00 46° ENE 23:26:19 45° E
Cosmos 1302 Rocket 4.1 23:32:20 54° SW 23:33:29 74° WNW 23:38:48 10° NNE
Okean 1-7 Rocket 3.9 23:30:36 10° NNW 23:34:56 60° W 23:34:56 60° W
Cosmos 1535 Rocket 4.4 23:37:20 59° S 23:38:41 87° E 23:45:08 10° N
Meteor 1-13 Rocket 4.5 23:36:54 10° NNW 23:42:48 68° W 23:43:51 57° SSW
Meteor 2-14 Rocket 4.3 23:42:33 66° SE 23:43:02 69° E 23:49:09 10° NNE
Cosmos 1633 4.3 23:44:51 30° NNE 23:44:51 30° NNE 23:46:50 10° N
ASTEX 1 3.5 23:39:10 10° N 23:44:06 68° W 23:44:25 66° WSW
Meteor 2-15 4.3 23:39:33 10° N 23:45:39 68° E 23:46:10 65° ESE
Iridium 4 Rocket 3.6 23:43:02 10° N 23:48:59 83° E 23:49:23 77° SE
Cosmos 1315 Rocket 4.4 23:51:14 30° NNE 23:51:14 30° NNE 23:53:21 10° NNE
Lacrosse 5 rocket 3.2 23:49:43 10° W 23:53:03 27° NW 23:56:17 10° NNE
